Погода Уля

Погода Уля : погода сейчас, прогноз погоды и архив. Всё, что Вы хотите узнать о погоде Уля!

Поиск расширенной информации на нашем сайте:

Другие новости

Новости СМИ2

Главная страница сайта

Новости сайта

03.07.2017

Напоминаем, что на нашем специализированном сайте Метеоцентр.Азия вы можете получить высокодетализированные автоматические прогнозы погоды по пунктам России, СНГ и мира в авиационном формате (включающие направление и скорость ветра, видимость, явления погоды, количество и форму облачности, нижнюю и верхнюю границу облачности).


Погода Уля - сегодня

Время (UTC), дата Ветер
(°,м/с) 
Видим.   Явления Облачность Т
(°С)
Тd
(°С)
f(%) Тe
(°С)
Pmin
(гПа)
dP
(гПа)
Po
(мм)
O2
(г/м3)
Тmin Tmax R s Состояние
почвы
06 09.12.17 020 (С) 4000 м  слаб. ливневой снег  10/10 600 м кучево-дожд. 
[Cb cap]
-10.9 -11.5 95 -15  1015.1  0.8  761  320           
12 09.12.17 360 (С) 10 км  {ливн. осадки}  10/10 600 м кучево-дожд. 
[Cb cap]
-13 -14.3 90 -16  1015.6  0.1  761  323           
15 09.12.17 320 (СЗ) 10 км    8/8 600 м кучево-дожд. 
[Cb cap]
-15.7 -18.4 80 -19  1014.8  -0.8  761  327           
18 09.12.17 360 (С) 20000 м    6/0 верхняя 
[Ci fib]
-12 -17.2 65 -16  1014.5  -0.3  760  322           
21 09.12.17 340 (С) 20000 м    6/0 верхняя 
[Ci fib]
-13.4 -22.8 45 -18  1014.9  0.4  761  324  -15.9      равномерный
сухой снег
100% 
00 10.12.17 320 (СЗ) 20000 м    4/0 верхняя 
[Ci fib]
-13.4 -24.2 40 -17  1015.5  0.6  761  324           
03 10.12.17 340 (С) 20000 м  позёмок  4/0 верхняя 
[Ci fib]
-11.8 -24.2 35 -19  1014.4  -1.1  760  322           
06 10.12.17 340 (С) 20000 м    6/1 600 м верхняя 
[Sc|Ci fib]
-12.6 -24.9 35 -18  1015.8  1.4  761  323           
09 10.12.17 340 (С) 20000 м    4/0 верхняя 
[Ci fib]
-15 -24.3 45 -20  1017.3  1.5  762  327    -11.7       
12 10.12.17 320 (СЗ) 20000 м    4/0 верхняя 
[Ci fib]
-15.8 -25 45 -22  1018.9  1.6  764  328           
15 10.12.17 340 (С) 20000 м    4/0 верхняя 
[Ci fib]
-16.2 -24.2 50 -23  1020  1.1  764  329           
18 10.12.17 340 (С) 20000 м  позёмок  6/0 верхняя 
[Ci fib]
-16.3 -25.5 45 -24  1020.6  0.6  765  330           
21 10.12.17 340 (С) 20000 м  позёмок  8/0 верхняя 
[Ci fib]
-16.3 -26.8 40 -23  1022.3  1.7  766  330  -16.8      равномерный
сухой снег
100% 
00 11.12.17 290 (З) 10-12{12}  20000 м  позёмок  10/0 верхняя 
[Cc]
-16.2 -26.7 40 -25  1023.3  767  330           
03 11.12.17 290 (З) 10-12{12}  20000 м  позёмок  10/0 средняя 
[As op]
-14.8 -21.8 55 -23  1023.5  0.2  767  328           
06 11.12.17 340 (С) 8-10{12}  10 км  слаб. снег  10/0 средняя 
[As op]
-15 -21 60 -22  1023.1  -0.4  767  329           
09 11.12.17 340 (С) 9-10{10}  10 км  слаб. снег  10/0 средняя 
[As op]
-15.1 -18.5 75 -23  1023  -0.1  767  329    -14.5  0.5     
12 11.12.17 340 (С) 8{10}  10 км  слаб. снег  10/0 средняя 
[As op]
-14.9 -17.6 80 -22  1022.4  -0.6  766  328           
15 11.12.17 290 (З) 10-12{12}  10 км  слаб. снег  10/0 средняя 
[As op]
-14.1 -16.1 85 -22  1020.9  -1.5  765  327           
18 11.12.17 290 (З) 10-12{12}  10 км  слаб. снег  10/0 средняя 
[As op]
-13.8 -15.8 85 -22  1020.4  -0.5  765  326           
21 11.12.17 340 (С) 12-14{14}  4000 м  слаб. ливневой снег  10/10 600 м кучево-дожд. 
[Cb cap]
-12.1 -13.4 90 -21  1019.3  -1.1  764  323  -15.1    равномерный
сухой снег
100% 
00 12.12.17 340 (С) 12-14{14}  4000 м  слаб. ливневой снег  10/10 600 м кучево-дожд. 
[Cb cap]
-11.3 -11.9 95 -20  1019.1  -0.2  764  322           
03 12.12.17 290 (З) 12-14{14}  4000 м  слаб. ливневой снег  10/10 300 м кучево-дожд. 
[Cb cap]
-9.6 -9.9 98 -17  1019.1  764  320           
06 12.12.17 340 (С) 8{14}  10 км  слаб. ливневой снег  10/10 300 м кучево-дожд. 
[Cb cap]
-9.1 -9.8 95 -15  1020.5  1.4  765  320           
09 12.12.17 320 (СЗ) 10 км  слаб. ливневой снег  10/10 300 м кучево-дожд. 
[Cb cap]
-10.2 -10.8 95 -16  1021.9  1.4  766  322    -8.7     
Время (UTC), дата Ветер
(°,м/с) 
Видим.   Явления Облачность Т
(°С)
Тd
(°С)
f(%) Тe
(°С)
Pmin
(гПа)
dP
(гПа)
Po
(мм)
O2
(г/м3)
Тmin Tmax R s Состояние
почвы

Для получения пояснительной информации подведите курсор к названию столбца.

ПОГОДА Уля - архив

Всё, что Вы хотите узнать о погоде Уля - удобно и подробно!

Выберите нужную дату (начиная с 1 января 2015* года) и нажмите кнопку "Найти".
Будут отображены архивные сводки погоды по пункту Уля, начиная с указанной даты.


Отображать данные в формате CSV (для использования в таблицах Excel)


Внимание! Наш архив погоды предназначен исключительно для личного некоммерческого использования в познавательных целях. Если Вам необходимы официальные справки о состоянии погоды (для производственных, юридических, коммерческих и т.п. целей), обращайтесь в органы Росгидромета.

*Примечание: данная дата относится к архиву по метеостанциям СССР (Россия, СНГ, Балтия).
Архив по метеостанциям Зарубежной Европы и Азии (кроме Китая) хранится 10 дней, по другим регионам земного шара (Китай, Африка, Америка, Австралия, Океания) - 1 день.

Уля - район местоположения метеостанции


Название, широта, долгота, высота метеостанции:
Уля 58.8°ш. 141.7°д. 4 м над ур. моря [Российская Федерация]

Дополнительная информация

В oтличие oт бoльшинства пoгoдных сайтoв мы публикуем пoдрoбную метеoинфoрмацию в детальнoм прoфессиoнальнoм фoрмате.

Характеристики температуры и влажнoсти вoздуха измеряются на высoте 2 м в тени вдали oт зданий и деревьев.
Скoрoсть ветра измеряется на высoте 10 м (на урoвне рoста челoвека скoрoсть ветра ниже в 1.5-2 раза). Если метеoстанция нахoдится в гoрoде или в лесу, тo скoрoсть ветра занижена на 2-4 м/с пo сравнению с oткрытым местoм. Скoрoсть ветра над акватoриями крупных рек и oзёр, а также на вершинах хoлмoв на 2-5 м/с выше, чем в oбычных услoвиях.
Атмoсфернoе давление в разных тoчках местнoсти мoжет значительнo oтличаться oт давления на метеoстанции, в зависимoсти oт услoвий рельефа (при пoдъёме на 10 м давление пoнижается примернo на 1 мм рт.ст.).